Simultaneous Nadir Overpasses (SNOs) Predictions

Prediction of SNOs between AQUA and METOP-A Satellite Orbit:

Table of predicted SNOs for the next 14.0 days since TLE Epoch: 3/6/2021
Index Date (AQUA) Time (AQUA) Lat,Lon (AQUA) SZA (AQUA ) Date (METOP-A) Time (METOP-A) Lat,Lon (METOP-A) SZA (METOP-A ) Distance(km) Time Diff (sec)
1 03/07/2021 09:58:12 77.13, 15.41 82.79 03/07/2021 09:57:18 77.13, 15.51 82.79 2.63 54
2 03/07/2021 10:47:38 -77.14,-176.98 97.22 03/07/2021 10:47:59 -77.14,-177.10 97.22 3.04 21
3 03/10/2021 05:32:27 77.13, 81.85 81.68 03/10/2021 05:31:40 77.12, 81.83 81.68 1.79 47
4 03/10/2021 06:21:54 -77.19,-110.72 98.27 03/10/2021 06:22:20 -77.18,-110.59 98.30 3.17 26
5 03/13/2021 01:06:41 77.14, 148.25 80.57 03/13/2021 01:06:00 77.16, 148.32 80.59 2.09 41
6 03/13/2021 01:56:08 -77.20, -44.31 99.38 03/13/2021 01:56:41 -77.17, -44.28 99.41 2.84 33
7 03/15/2021 20:40:56 77.16,-145.38 79.48 03/15/2021 20:40:22 77.15,-145.38 79.47 2.02 34
8 03/15/2021 21:30:23 -77.22, 22.05 100.48 03/15/2021 21:31:02 -77.21, 22.22 100.51 4.05 39
9 03/18/2021 16:15:10 77.15, -78.87 78.33 03/18/2021 16:14:43 77.18, -78.90 78.37 3.74 27



Historial Predications of SNOs between AQUA and METOP-A
